Miscellaneous Local Product
Issued by NWS North Platte, NE

Home | Current Version | Previous Version | Text Only | Print | Product List | Glossary Off
Versions: 1 2 3 4 5 6 7 8 9 10 11 12 13 14 15 16 17 18 19 20 21 22 23 24 25 26 27 28 29 30 31 32 33 34 35 36 37 38 39 40 41 42 43 44 45 46 47 48 49 50

532
AXUS43 KLBF 221910
MISLBF


WESTERN AND NORTH CENTRAL NEBRASKA HOURLY WEATHER ROUNDUP
NATIONAL WEATHER SERVICE NORTH PLATTE NE
200 PM CDT SUN OCT 22 2017

NOTE: "FAIR" INDICATES FEW OR NO CLOUDS BELOW 12,000 FEET WITH NO
SIGNIFICANT WEATHER AND/OR OBSTRUCTIONS TO VISIBILITY.

NOTE: STATIONS NOT REPORTING VARIABLES SUCH AS SKY/WEATHER OR
PRESSURE ARE PROVIDED BY RAWS AND APRS NETWORKS AND ARE NOT UNDER
NATIONAL WEATHER SERVICE QUALITY CONTROL.

...OBSERVATIONS IN AND NEAR THE EASTERN PANHANDLE OF NEBRASKA...

CITY           SKY/WX    TMP DP  RH WIND       PRES   REMARKS
PINE RIDGE     SUNNY     66  27  23 W18       29.95F
GORDON         FAIR      65  27  23 W21       29.96F
CHADRON        SUNNY     70  24  17 W21G33    29.95F
ALLIANCE       SUNNY     66  27  23 MISG      29.99F
SIDNEY         SUNNY     67  26  21 W22G32    30.07F
CRESCENT LAKE    N/A     66  27  23 W17G25      N/A
$$

...OBSERVATIONS IN NORTHERN NEBRASKA AND FAR SOUTHERN SOUTH DAKOTA...

CITY           SKY/WX    TMP DP  RH WIND       PRES   REMARKS
WINNER         FAIR      67  28  23 SW18      29.92F
VALENTINE      SUNNY     67  27  22 W21G31    29.95F
THEDFORD       SUNNY     67  29  25 SW17G29   30.01F
AINSWORTH      SUNNY     64  30  27 W18G24    29.97F
O`NEILL        SUNNY     65  29  25 SW15G23   30.00F
ORD            SUNNY     65  26  23 SW17G26   30.02F
BROKEN BOW     SUNNY     65  29  25 W21G28    30.03F
VALENTINE NWR    N/A     63  26  24 W14G23      N/A
HALSEY           N/A     65  25  22 W9G20       N/A
BUTTE            N/A     64  28  25 SW17G32     N/A
CHAMBERS         N/A     64  29  27 SW12        N/A
EWING            N/A     66  28  24 W14         N/A
$$

...OBSERVATIONS IN SOUTHWEST NEBRASKA AND FAR NORTHEAST COLORADO...

CITY           SKY/WX    TMP DP  RH WIND       PRES   REMARKS
WRAY           FAIR      68  16  13 W12G20    30.11F
HOLYOKE        FAIR      70  25  18 W14G23    30.10F
IMPERIAL       SUNNY     69  22  16 W20G25    30.07F
OGALLALA       SUNNY     68  25  20 SW14G23   30.05F
NORTH PLATTE   SUNNY     67  26  21 SW15G26   30.05F
MCCOOK         SUNNY     69  20  15 SW20G33   30.08F
LEXINGTON      SUNNY     65  26  22 SW15G28   30.06F
STAPLETON        N/A     65  32  29 NW3         N/A
GOTHENBURG       N/A     62  25  24 SW12        N/A
CALLAWAY         N/A     63  28  26 SW20        N/A
$$

...OBSERVATIONS IN CENTRAL LINCOLN COUNTY AREA...

CITY           SKY/WX    TMP DP  RH WIND       PRES   REMARKS
N.P. AIRPORT   SUNNY     67  26  21 SW15G26   30.05F
N.P. DOWNTOWN    N/A     66  27  23 SW5         N/A
N.P. SOUTHEAST   N/A     66  25  21 SW9G17      N/A
N.P. HILLCREST   N/A     65  25  22 W18G26      N/A
$$

...SOME OBSERVATIONS FROM AROUND THE REGION...

CITY           SKY/WX    TMP DP  RH WIND       PRES   REMARKS
DENVER         MOSUNNY   67  25  20 NW14G20   30.14F
LIMON          SUNNY     65  20  17 VRB6      30.15F
ASPEN          SUNNY     50  26  39 N6        30.44F
LARAMIE        CLOUDY    50  22  33 SW31G43   30.19F
CASPER         LGT RAIN  58  27  30 SW30G39   30.08F
CHEYENNE       CLOUDY    58  24  27 W24G32    30.13F
SCOTTSBLUFF    CLOUDY    64  29  26 W21G32    30.02F
GRAND ISLAND   SUNNY     68  24  19 W16       30.06F
OMAHA          MOSUNNY   66  31  27 VRB6      30.06F
SIOUX FALLS    SUNNY     64  33  31 SW16G22   29.97F
PIERRE         SUNNY     64  28  25 SW15      29.87F
RAPID CITY     SUNNY     69  28  21 SW17      29.87F
BISMARCK       CLOUDY    61  23  23 SW25      29.74F
KANSAS CITY    PTSUNNY   62  43  49 NW8       30.11F
HILL CITY      SUNNY     68  22  17 SW14G22   30.12F
WICHITA        SUNNY     67  39  35 SW9       30.15F
DODGE CITY     SUNNY     68  16  13 SW13G21   30.18F
OKLAHOMA CITY  SUNNY     65  39  38 NW12      30.20F
DALLAS         MOSUNNY   74  40  29 N22       30.14F
AMARILLO       MOSUNNY   64  25  22 SW12G17   30.26F
$$




USA.gov is the U.S. government's official web portal to all federal, state and local government web resources and services.